Time,TemperatureF,DewpointF,PressureIn,WindDirection,WindDirectionDegrees,WindSpeedMPH,WindSpeedGustMPH,Humidity,HourlyPrecipIn,Conditions,Clouds,dailyrainin,SoftwareType,DateUTC
2013-03-16 00:00:00,44.3,38.8,29.74,NE,35,10.0,13.0,81,0.00,,,0.00,VWS V14.01,2013-03-16 05:00:00,
2013-03-16 00:04:00,46.2,38.0,29.74,NNE,31,10.0,13.0,73,0.00,,,0.00,VWS V14.01,2013-03-16 05:04:00,
2013-03-16 00:09:00,46.0,37.8,29.74,NE,38,10.0,13.0,73,0.00,,,0.00,VWS V14.01,2013-03-16 05:09:00,
2013-03-16 00:14:00,45.7,38.6,29.74,NE,35,10.0,13.0,76,0.00,,,0.00,VWS V14.01,2013-03-16 05:14:00,
2013-03-16 00:15:00,44.5,35.3,29.74,NE,35,11.0,17.0,70,0.00,,,0.00,VWS V14.01,2013-03-16 05:15:00,
2013-03-16 00:19:00,45.7,38.2,29.74,NE,47,10.0,12.0,75,0.00,,,0.00,VWS V14.01,2013-03-16 05:19:00,
2013-03-16 00:24:00,45.5,38.4,29.74,NE,40,10.0,13.0,76,0.00,,,0.00,VWS V14.01,2013-03-16 05:24:00,
2013-03-16 00:29:00,45.4,38.0,29.74,NE,45,10.0,13.0,75,0.00,,,0.00,VWS V14.01,2013-03-16 05:29:00,
2013-03-16 00:30:00,44.3,34.0,29.73,NNE,25,11.0,16.0,67,0.00,,,0.00,VWS V14.01,2013-03-16 05:30:00,
2013-03-16 00:34:00,45.1,37.7,29.74,NE,38,7.0,10.0,75,0.00,,,0.00,VWS V14.01,2013-03-16 05:34:00,
2013-03-16 00:39:00,45.1,38.7,29.74,NE,41,10.0,12.0,78,0.00,,,0.00,VWS V14.01,2013-03-16 05:39:00,
2013-03-16 00:44:00,45.1,38.0,29.74,NE,44,10.0,12.0,76,0.00,,,0.00,VWS V14.01,2013-03-16 05:44:00,
2013-03-16 00:45:00,43.8,35.7,29.73,NNE,32,8.0,14.0,73,0.00,,,0.00,VWS V14.01,2013-03-16 05:45:00,
2013-03-16 00:49:00,44.9,38.1,29.74,NE,38,10.0,13.0,77,0.00,,,0.00,VWS V14.01,2013-03-16 05:49:00,
2013-03-16 00:54:00,44.6,38.2,29.74,NE,40,9.0,13.0,78,0.00,,,0.00,VWS V14.01,2013-03-16 05:54:00,
2013-03-16 00:59:00,44.2,38.8,29.74,NE,35,7.0,13.0,81,0.00,,,0.00,VWS V14.01,2013-03-16 05:59:00,
2013-03-16 01:00:00,43.9,35.5,29.74,NNE,23,12.0,16.0,72,0.00,,,0.00,VWS V14.01,2013-03-16 06:00:00,
2013-03-16 01:04:00,44.5,36.7,29.74,NE,37,10.0,12.0,74,0.00,,,0.00,VWS V14.01,2013-03-16 06:04:00,
2013-03-16 01:09:00,44.6,35.8,29.74,NNE,32,12.0,14.0,71,0.00,,,0.00,VWS V14.01,2013-03-16 06:09:00,
2013-03-16 01:14:00,44.6,35.4,29.74,NE,34,12.0,17.0,70,0.00,,,0.00,VWS V14.01,2013-03-16 06:14:00,
2013-03-16 01:15:00,43.9,34.8,29.75,NNE,31,12.0,16.0,70,0.00,,,0.00,VWS V14.01,2013-03-16 06:15:00,
2013-03-16 01:19:00,44.5,36.4,29.74,NNE,18,11.0,14.0,73,0.00,,,0.00,VWS V14.01,2013-03-16 06:19:00,
2013-03-16 01:24:00,44.5,35.3,29.74,NNE,28,12.0,14.0,70,0.00,,,0.00,VWS V14.01,2013-03-16 06:24:00,
2013-03-16 01:29:00,44.3,34.8,29.74,NE,41,12.0,16.0,69,0.00,,,0.00,VWS V14.01,2013-03-16 06:29:00,
2013-03-16 01:30:00,43.2,34.1,29.76,NNE,20,10.0,14.0,70,0.00,,,0.00,VWS V14.01,2013-03-16 06:30:00,
2013-03-16 01:34:00,44.2,34.3,29.73,NNE,32,12.0,14.0,68,0.00,,,0.00,VWS V14.01,2013-03-16 06:34:00,
2013-03-16 01:39:00,44.1,35.0,29.73,NNE,20,12.0,14.0,70,0.00,,,0.00,VWS V14.01,2013-03-16 06:39:00,
2013-03-16 01:44:00,43.9,35.1,29.73,NE,37,12.0,14.0,71,0.00,,,0.00,VWS V14.01,2013-03-16 06:44:00,
2013-03-16 01:45:00,42.8,35.8,29.78,North,7,6.0,18.0,76,0.00,,,0.00,VWS V14.01,2013-03-16 06:45:00,
2013-03-16 01:49:00,43.9,35.5,29.73,North,11,10.0,12.0,72,0.00,,,0.00,VWS V14.01,2013-03-16 06:49:00,
2013-03-16 01:54:00,44.1,35.3,29.73,NNE,27,14.0,16.0,71,0.00,,,0.00,VWS V14.01,2013-03-16 06:54:00,
2013-03-16 01:59:00,43.9,36.2,29.73,NNE,20,10.0,16.0,74,0.00,,,0.00,VWS V14.01,2013-03-16 06:59:00,
2013-03-16 02:00:00,42.3,35.0,29.79,NE,34,7.0,11.0,75,0.00,,,0.00,VWS V14.01,2013-03-16 07:00:00,
2013-03-16 02:04:00,44.1,34.6,29.74,NE,37,7.0,15.0,69,0.00,,,0.00,VWS V14.01,2013-03-16 07:04:00,
2013-03-16 02:09:00,44.1,35.3,29.74,North,4,11.0,15.0,71,0.00,,,0.00,VWS V14.01,2013-03-16 07:09:00,
2013-03-16 02:14:00,43.9,34.8,29.74,NNE,27,10.0,16.0,70,0.00,,,0.00,VWS V14.01,2013-03-16 07:14:00,
2013-03-16 02:15:00,41.5,33.5,29.80,NE,45,12.0,19.0,73,0.00,,,0.00,VWS V14.01,2013-03-16 07:15:00,
2013-03-16 02:19:00,43.6,35.2,29.75,NNE,31,11.0,14.0,72,0.00,,,0.00,VWS V14.01,2013-03-16 07:19:00,
2013-03-16 02:24:00,43.5,35.1,29.75,NNE,32,8.0,14.0,72,0.00,,,0.00,VWS V14.01,2013-03-16 07:24:00,
2013-03-16 02:29:00,43.3,34.9,29.75,NE,45,11.0,14.0,72,0.00,,,0.00,VWS V14.01,2013-03-16 07:29:00,
2013-03-16 02:30:00,40.6,33.6,29.80,NE,42,11.0,18.0,76,0.00,,,0.00,VWS V14.01,2013-03-16 07:30:00,
2013-03-16 02:34:00,43.2,34.1,29.76,NE,35,13.0,18.0,70,0.00,,,0.00,VWS V14.01,2013-03-16 07:34:00,
2013-03-16 02:39:00,42.9,34.5,29.76,NNE,23,13.0,18.0,72,0.00,,,0.00,VWS V14.01,2013-03-16 07:39:00,
2013-03-16 02:44:00,42.8,34.8,29.76,NNE,28,10.0,18.0,73,0.00,,,0.00,VWS V14.01,2013-03-16 07:44:00,
2013-03-16 02:45:00,39.6,32.3,29.82,NNE,28,13.0,19.0,75,0.00,,,0.00,VWS V14.01,2013-03-16 07:45:00,
2013-03-16 02:49:00,42.6,35.2,29.78,NNE,31,6.0,10.0,75,0.00,,,0.00,VWS V14.01,2013-03-16 07:49:00,
2013-03-16 02:54:00,42.3,35.0,29.78,NE,40,7.0,11.0,75,0.00,,,0.00,VWS V14.01,2013-03-16 07:54:00,
2013-03-16 02:59:00,42.3,35.6,29.78,NNE,31,8.0,11.0,77,0.00,,,0.00,VWS V14.01,2013-03-16 07:59:00,
2013-03-16 03:00:00,38.0,32.7,29.84,NE,38,12.0,20.0,81,0.00,,,0.00,VWS V14.01,2013-03-16 08:00:00,
2013-03-16 03:04:00,42.1,35.1,29.79,NE,35,12.0,12.0,76,0.00,,,0.00,VWS V14.01,2013-03-16 08:04:00,
2013-03-16 03:09:00,41.9,32.8,29.79,NE,40,13.0,18.0,70,0.00,,,0.00,VWS V14.01,2013-03-16 08:09:00,
2013-03-16 03:14:00,41.5,33.2,29.79,NE,45,11.0,19.0,72,0.00,,,0.00,VWS V14.01,2013-03-16 08:14:00,
2013-03-16 03:15:00,36.6,32.8,29.85,NE,35,12.0,14.0,86,0.00,,,0.00,VWS V14.01,2013-03-16 08:15:00,
2013-03-16 03:19:00,41.2,32.9,29.80,NNE,28,14.0,18.0,72,0.00,,,0.00,VWS V14.01,2013-03-16 08:19:00,
2013-03-16 03:24:00,40.8,32.5,29.80,NNE,31,13.0,18.0,72,0.00,,,0.00,VWS V14.01,2013-03-16 08:24:00,
2013-03-16 03:29:00,40.6,32.3,29.80,NE,44,12.0,18.0,72,0.00,,,0.00,VWS V14.01,2013-03-16 08:29:00,
2013-03-16 03:30:00,34.6,33.3,29.86,NE,45,6.0,17.0,95,0.00,,,0.00,VWS V14.01,2013-03-16 08:30:00,
2013-03-16 03:34:00,40.3,33.3,29.80,NE,38,11.0,16.0,76,0.00,,,0.00,VWS V14.01,2013-03-16 08:34:00,
2013-03-16 03:39:00,40.1,33.2,29.80,NE,37,13.0,18.0,76,0.00,,,0.00,VWS V14.01,2013-03-16 08:39:00,
2013-03-16 03:44:00,39.5,33.2,29.80,NE,38,14.0,19.0,78,0.00,,,0.00,VWS V14.01,2013-03-16 08:44:00,
2013-03-16 03:45:00,33.5,33.5,29.87,NNE,28,7.0,14.0,100,0.00,,,0.00,VWS V14.01,2013-03-16 08:45:00,
2013-03-16 03:49:00,39.1,32.8,29.82,NE,37,10.0,18.0,78,0.00,,,0.00,VWS V14.01,2013-03-16 08:49:00,
2013-03-16 03:54:00,38.8,32.9,29.82,NE,40,19.0,19.0,79,0.00,,,0.00,VWS V14.01,2013-03-16 08:54:00,
2013-03-16 03:59:00,38.2,32.9,29.82,NE,38,18.0,20.0,81,0.00,,,0.00,VWS V14.01,2013-03-16 08:59:00,
2013-03-16 04:00:00,33.1,33.1,29.88,NE,38,7.0,14.0,100,0.00,,,0.00,VWS V14.01,2013-03-16 09:00:00,
2013-03-16 04:04:00,37.9,32.9,29.84,NE,37,10.0,13.0,82,0.00,,,0.00,VWS V14.01,2013-03-16 09:04:00,
2013-03-16 04:09:00,37.8,33.4,29.84,NNE,25,10.0,13.0,84,0.00,,,0.00,VWS V14.01,2013-03-16 09:09:00,
2013-03-16 04:14:00,37.0,33.2,29.84,NNE,24,10.0,14.0,86,0.00,,,0.00,VWS V14.01,2013-03-16 09:14:00,
2013-03-16 04:15:00,33.1,33.1,29.89,NNE,24,6.0,14.0,100,0.00,,,0.00,VWS V14.01,2013-03-16 09:15:00,
2013-03-16 04:19:00,36.0,32.5,29.85,NNE,13,3.0,17.0,87,0.00,,,0.00,VWS V14.01,2013-03-16 09:19:00,
2013-03-16 04:24:00,35.3,32.4,29.85,NNE,24,12.0,17.0,89,0.00,,,0.00,VWS V14.01,2013-03-16 09:24:00,
2013-03-16 04:29:00,34.6,33.0,29.85,NNE,27,14.0,17.0,94,0.00,,,0.00,VWS V14.01,2013-03-16 09:29:00,
2013-03-16 04:30:00,32.7,32.7,29.89,North,357,10.0,13.0,100,0.00,,,0.00,VWS V14.01,2013-03-16 09:30:00,
2013-03-16 04:34:00,34.4,34.4,29.86,NE,45,11.0,13.0,100,0.00,,,0.00,VWS V14.01,2013-03-16 09:34:00,
2013-03-16 04:39:00,34.0,34.0,29.86,NE,49,11.0,14.0,100,0.00,,,0.00,VWS V14.01,2013-03-16 09:39:00,
2013-03-16 04:44:00,33.5,33.5,29.86,NE,42,13.0,14.0,100,0.00,,,0.00,VWS V14.01,2013-03-16 09:44:00,
2013-03-16 04:45:00,32.8,32.8,29.89,NE,35,7.0,12.0,100,0.00,,,0.00,VWS V14.01,2013-03-16 09:45:00,
2013-03-16 04:49:00,33.2,33.2,29.87,NNE,32,8.0,12.0,100,0.00,,,0.00,VWS V14.01,2013-03-16 09:49:00,
2013-03-16 04:54:00,33.2,33.2,29.87,NE,45,8.0,14.0,100,0.00,,,0.00,VWS V14.01,2013-03-16 09:54:00,
2013-03-16 04:59:00,33.1,33.1,29.87,NNE,31,10.0,14.0,100,0.00,,,0.00,VWS V14.01,2013-03-16 09:59:00,
2013-03-16 05:00:00,32.8,32.8,29.89,NNE,21,2.0,12.0,100,0.00,,,0.00,VWS V14.01,2013-03-16 10:00:00,
2013-03-16 05:04:00,33.4,33.4,29.88,NNE,31,10.0,12.0,100,0.00,,,0.00,VWS V14.01,2013-03-16 10:04:00,
2013-03-16 05:09:00,32.8,32.8,29.88,NE,42,7.0,14.0,100,0.00,,,0.00,VWS V14.01,2013-03-16 10:09:00,
2013-03-16 05:14:00,32.9,32.9,29.88,NNE,13,8.0,14.0,100,0.00,,,0.00,VWS V14.01,2013-03-16 10:14:00,
2013-03-16 05:15:00,32.5,32.5,29.90,North,11,10.0,12.0,100,0.00,,,0.00,VWS V14.01,2013-03-16 10:15:00,
2013-03-16 05:19:00,32.9,32.9,29.89,NNE,25,7.0,12.0,100,0.00,,,0.00,VWS V14.01,2013-03-16 10:19:00,
2013-03-16 05:24:00,32.7,32.7,29.89,North,7,6.0,13.0,100,0.00,,,0.00,VWS V14.01,2013-03-16 10:24:00,
2013-03-16 05:29:00,32.7,32.7,29.89,North,7,10.0,13.0,100,0.00,,,0.00,VWS V14.01,2013-03-16 10:29:00,
2013-03-16 05:30:00,32.2,32.2,29.92,NNE,24,4.0,15.0,100,0.00,,,0.00,VWS V14.01,2013-03-16 10:30:00,
2013-03-16 05:34:00,32.5,32.5,29.89,NNE,17,12.0,12.0,100,0.00,,,0.00,VWS V14.01,2013-03-16 10:34:00,
2013-03-16 05:39:00,32.7,32.7,29.89,NNE,21,4.0,12.0,100,0.00,,,0.00,VWS V14.01,2013-03-16 10:39:00,
2013-03-16 05:44:00,32.8,32.8,29.89,North,6,7.0,12.0,100,0.00,,,0.00,VWS V14.01,2013-03-16 10:44:00,
2013-03-16 05:45:00,32.4,32.4,29.92,North,11,7.0,14.0,100,0.00,,,0.00,VWS V14.01,2013-03-16 10:45:00,
2013-03-16 05:49:00,32.9,32.9,29.89,NNE,30,7.0,12.0,100,0.00,,,0.00,VWS V14.01,2013-03-16 10:49:00,
2013-03-16 05:54:00,32.8,32.8,29.89,NNE,21,2.0,12.0,100,0.00,,,0.00,VWS V14.01,2013-03-16 10:54:00,
2013-03-16 05:59:00,32.8,32.8,29.89,NE,34,7.0,12.0,100,0.00,,,0.00,VWS V14.01,2013-03-16 10:59:00,
2013-03-16 06:00:00,31.9,31.9,29.92,NNE,31,10.0,14.0,100,0.00,,,0.00,VWS V14.01,2013-03-16 11:00:00,
2013-03-16 06:04:00,32.8,32.8,29.89,NNE,32,5.0,11.0,100,0.00,,,0.00,VWS V14.01,2013-03-16 11:04:00,
2013-03-16 06:09:00,32.5,32.5,29.89,NNE,14,7.0,12.0,100,0.00,,,0.00,VWS V14.01,2013-03-16 11:09:00,
2013-03-16 06:14:00,32.7,32.7,29.89,NE,37,6.0,12.0,100,0.00,,,0.00,VWS V14.01,2013-03-16 11:14:00,
2013-03-16 06:15:00,32.1,32.1,29.93,NNE,24,7.0,14.0,100,0.00,,,0.00,VWS V14.01,2013-03-16 11:15:00,
2013-03-16 06:19:00,32.5,32.5,29.90,North,6,6.0,10.0,100,0.00,,,0.00,VWS V14.01,2013-03-16 11:19:00,
2013-03-16 06:24:00,32.4,32.4,29.90,NNE,13,8.0,15.0,100,0.00,,,0.00,VWS V14.01,2013-03-16 11:24:00,
2013-03-16 06:29:00,32.2,32.2,29.90,NE,35,6.0,15.0,100,0.00,,,0.00,VWS V14.01,2013-03-16 11:29:00,
2013-03-16 06:30:00,31.6,31.6,29.95,NNE,32,10.0,12.0,100,0.00,,,0.00,VWS V14.01,2013-03-16 11:30:00,
2013-03-16 06:35:00,32.4,32.4,29.92,NE,41,5.0,10.0,100,0.00,,,0.00,VWS V14.01,2013-03-16 11:35:00,
2013-03-16 06:39:00,32.4,32.4,29.92,NNE,28,3.0,12.0,100,0.00,,,0.00,VWS V14.01,2013-03-16 11:39:00,
2013-03-16 06:44:00,32.5,32.5,29.92,NNE,21,7.0,12.0,100,0.00,,,0.00,VWS V14.01,2013-03-16 11:44:00,
2013-03-16 06:45:00,31.6,31.6,29.95,NNE,30,5.0,13.0,100,0.00,,,0.00,VWS V14.01,2013-03-16 11:45:00,
2013-03-16 06:50:00,32.2,32.2,29.92,NNE,24,7.0,14.0,100,0.00,,,0.00,VWS V14.01,2013-03-16 11:50:00,
2013-03-16 06:54:00,32.2,32.2,29.92,NNE,25,7.0,14.0,100,0.00,,,0.00,VWS V14.01,2013-03-16 11:54:00,
2013-03-16 07:00:00,31.9,31.9,29.92,NNE,31,8.0,14.0,100,0.00,,,0.00,VWS V14.01,2013-03-16 12:00:00,
2013-03-16 07:05:00,32.1,32.1,29.92,NE,45,5.0,12.0,100,0.00,,,0.00,VWS V14.01,2013-03-16 12:05:00,
2013-03-16 07:10:00,31.6,31.6,29.92,North,3,12.0,14.0,100,0.00,,,0.00,VWS V14.01,2013-03-16 12:10:00,
2013-03-16 07:15:00,31.8,31.8,29.92,NNE,27,7.0,14.0,100,0.00,,,0.00,VWS V14.01,2013-03-16 12:15:00,
2013-03-16 07:20:00,31.9,31.9,29.93,NNE,31,7.0,11.0,100,0.00,,,0.00,VWS V14.01,2013-03-16 12:20:00,
2013-03-16 07:25:00,31.8,31.8,29.93,North,10,5.0,11.0,100,0.00,,,0.00,VWS V14.01,2013-03-16 12:25:00,
2013-03-16 07:30:00,31.8,31.8,29.93,North,0,7.0,12.0,100,0.00,,,0.00,VWS V14.01,2013-03-16 12:30:00,
2013-03-16 07:35:00,31.6,31.6,29.95,North,353,6.0,12.0,100,0.00,,,0.00,VWS V14.01,2013-03-16 12:35:00,
2013-03-16 07:40:00,31.8,31.8,29.95,North,0,11.0,13.0,100,0.00,,,0.00,VWS V14.01,2013-03-16 12:40:00,
2013-03-16 07:45:00,31.5,31.5,29.95,NE,34,7.0,13.0,100,0.00,,,0.00,VWS V14.01,2013-03-16 12:45:00,
2013-03-16 07:50:00,31.5,31.5,29.95,North,350,14.0,14.0,100,0.00,,,0.00,VWS V14.01,2013-03-16 12:50:00,
2013-03-16 07:55:00,31.2,31.2,29.95,NNE,31,7.0,17.0,100,0.00,,,0.00,VWS V14.01,2013-03-16 12:55:00,
2013-03-16 08:00:00,31.2,31.2,29.95,NNE,28,12.0,17.0,100,0.00,,,0.00,VWS V14.01,2013-03-16 13:00:00,
2013-03-16 08:05:00,31.3,31.3,29.95,NNE,20,7.0,14.0,100,0.00,,,0.00,VWS V14.01,2013-03-16 13:05:00,
2013-03-16 08:10:00,31.2,31.2,29.95,North,6,8.0,17.0,100,0.00,,,0.00,VWS V14.01,2013-03-16 13:10:00,
2013-03-16 08:15:00,31.2,31.2,29.95,NNE,24,8.0,17.0,100,0.00,,,0.00,VWS V14.01,2013-03-16 13:15:00,
2013-03-16 08:20:00,31.0,31.0,29.98,NNE,20,12.0,13.0,100,0.00,,,0.00,VWS V14.01,2013-03-16 13:20:00,
2013-03-16 08:25:00,31.3,31.3,29.98,NNE,25,6.0,13.0,100,0.00,,,0.00,VWS V14.01,2013-03-16 13:25:00,
2013-03-16 08:30:00,31.2,31.2,29.98,NE,37,7.0,13.0,100,0.00,,,0.00,VWS V14.01,2013-03-16 13:30:00,
2013-03-16 08:35:00,31.2,31.2,29.98,NE,37,10.0,14.0,100,0.00,,,0.00,VWS V14.01,2013-03-16 13:35:00,
2013-03-16 08:40:00,31.2,31.2,29.98,NNE,28,9.0,14.0,100,0.00,,,0.00,VWS V14.01,2013-03-16 13:40:00,
2013-03-16 08:45:00,31.3,31.3,29.98,NE,34,11.0,14.0,100,0.00,,,0.00,VWS V14.01,2013-03-16 13:45:00,
2013-03-16 08:50:00,31.3,31.3,29.98,NNE,28,10.0,17.0,100,0.00,,,0.00,VWS V14.01,2013-03-16 13:50:00,
2013-03-16 08:55:00,31.0,31.0,29.98,NE,47,8.0,17.0,100,0.00,,,0.00,VWS V14.01,2013-03-16 13:55:00,
2013-03-16 09:00:00,31.0,31.0,29.98,North,6,12.0,17.0,100,0.00,,,0.00,VWS V14.01,2013-03-16 14:00:00,
2013-03-16 09:05:00,31.0,31.0,29.98,NNE,21,9.0,14.0,100,0.00,,,0.00,VWS V14.01,2013-03-16 14:05:00,
2013-03-16 09:10:00,30.9,30.9,29.98,NE,34,8.0,18.0,100,0.00,,,0.00,VWS V14.01,2013-03-16 14:10:00,
2013-03-16 09:15:00,31.3,31.3,29.98,NNE,17,10.0,18.0,100,0.00,,,0.00,VWS V14.01,2013-03-16 14:15:00,
2013-03-16 09:20:00,31.2,31.2,29.98,NNE,16,12.0,14.0,100,0.00,,,0.00,VWS V14.01,2013-03-16 14:20:00,
2013-03-16 09:25:00,31.2,31.2,29.98,NNE,25,12.0,14.0,100,0.00,,,0.00,VWS V14.01,2013-03-16 14:25:00,
2013-03-16 09:30:00,30.9,30.9,29.98,North,359,13.0,14.0,100,0.00,,,0.00,VWS V14.01,2013-03-16 14:30:00,
2013-03-16 09:35:00,30.7,30.7,29.99,North,0,12.0,16.0,100,0.00,,,0.00,VWS V14.01,2013-03-16 14:35:00,
2013-03-16 09:40:00,30.7,30.7,29.99,NE,37,10.0,17.0,100,0.00,,,0.00,VWS V14.01,2013-03-16 14:40:00,
2013-03-16 09:45:00,31.2,31.2,29.99,NNE,31,10.0,17.0,100,0.00,,,0.00,VWS V14.01,2013-03-16 14:45:00,
2013-03-16 09:50:00,30.9,30.9,30.00,NNE,28,11.0,16.0,100,0.00,,,0.00,VWS V14.01,2013-03-16 14:50:00,
2013-03-16 09:55:00,30.7,30.7,30.00,NNE,24,11.0,17.0,100,0.00,,,0.00,VWS V14.01,2013-03-16 14:55:00,
2013-03-16 10:00:00,30.7,30.7,30.00,NE,38,12.0,17.0,100,0.00,,,0.00,VWS V14.01,2013-03-16 15:00:00,
2013-03-16 10:05:00,30.7,30.7,30.01,NNE,30,8.0,13.0,100,0.00,,,0.00,VWS V14.01,2013-03-16 15:05:00,
2013-03-16 10:10:00,31.0,31.0,30.01,NNE,18,7.0,13.0,100,0.00,,,0.00,VWS V14.01,2013-03-16 15:10:00,
2013-03-16 10:15:00,30.9,30.9,30.01,NNE,21,7.0,16.0,100,0.00,,,0.00,VWS V14.01,2013-03-16 15:15:00,
2013-03-16 10:20:00,31.6,31.6,30.01,NNE,25,5.0,13.0,100,0.00,,,0.00,VWS V14.01,2013-03-16 15:20:00,
2013-03-16 10:25:00,31.3,31.3,30.01,NNE,30,12.0,13.0,100,0.00,,,0.00,VWS V14.01,2013-03-16 15:25:00,
2013-03-16 10:30:00,32.1,32.1,30.01,NNE,25,7.0,17.0,100,0.00,,,0.00,VWS V14.01,2013-03-16 15:30:00,
2013-03-16 10:35:00,31.9,31.9,30.02,NNE,27,7.0,13.0,100,0.00,,,0.00,VWS V14.01,2013-03-16 15:35:00,
2013-03-16 10:40:00,32.1,32.1,30.02,NE,41,8.0,15.0,100,0.00,,,0.00,VWS V14.01,2013-03-16 15:40:00,
2013-03-16 10:45:00,31.5,31.5,30.02,NNE,23,8.0,15.0,100,0.00,,,0.00,VWS V14.01,2013-03-16 15:45:00,
2013-03-16 10:50:00,31.8,31.8,30.02,NNE,17,11.0,12.0,100,0.00,,,0.00,VWS V14.01,2013-03-16 15:50:00,
2013-03-16 10:55:00,32.4,32.4,30.02,North,354,13.0,13.0,100,0.00,,,0.00,VWS V14.01,2013-03-16 15:55:00,
2013-03-16 11:00:00,32.1,32.1,30.02,NNE,16,10.0,14.0,100,0.00,,,0.00,VWS V14.01,2013-03-16 16:00:00,
2013-03-16 11:05:00,32.4,32.4,30.02,NNE,13,7.0,10.0,100,0.00,,,0.00,VWS V14.01,2013-03-16 16:05:00,
2013-03-16 11:10:00,32.9,32.9,30.02,NNE,23,8.0,14.0,100,0.00,,,0.00,VWS V14.01,2013-03-16 16:10:00,
2013-03-16 11:15:00,33.2,33.2,30.02,North,11,6.0,14.0,100,0.00,,,0.00,VWS V14.01,2013-03-16 16:15:00,
2013-03-16 11:20:00,33.1,31.8,30.02,NNE,21,10.0,14.0,95,0.00,,,0.00,VWS V14.01,2013-03-16 16:20:00,
2013-03-16 11:25:00,33.1,32.8,30.02,North,7,7.0,14.0,99,0.00,,,0.00,VWS V14.01,2013-03-16 16:25:00,
2013-03-16 11:30:00,33.4,31.3,30.02,NNE,21,6.0,14.0,92,0.00,,,0.00,VWS V14.01,2013-03-16 16:30:00,
2013-03-16 11:35:00,33.4,31.3,30.02,NNE,31,8.0,12.0,92,0.00,,,0.00,VWS V14.01,2013-03-16 16:35:00,
2013-03-16 11:40:00,33.5,29.8,30.02,NNE,28,11.0,14.0,86,0.00,,,0.00,VWS V14.01,2013-03-16 16:40:00,
2013-03-16 11:45:00,33.8,30.4,30.02,NNE,24,7.0,14.0,87,0.00,,,0.00,VWS V14.01,2013-03-16 16:45:00,
2013-03-16 11:50:00,33.7,28.8,30.02,NNE,32,7.0,12.0,82,0.00,,,0.00,VWS V14.01,2013-03-16 16:50:00,
2013-03-16 11:55:00,34.1,30.4,30.02,NNE,18,8.0,12.0,86,0.00,,,0.00,VWS V14.01,2013-03-16 16:55:00,
2013-03-16 12:00:00,34.0,29.7,30.02,North,354,7.0,12.0,84,0.00,,,0.00,VWS V14.01,2013-03-16 17:00:00,
2013-03-16 12:05:00,33.8,28.0,30.03,NNE,18,10.0,12.0,79,0.00,,,0.00,VWS V14.01,2013-03-16 17:05:00,
2013-03-16 12:10:00,33.8,27.0,30.03,NNE,18,7.0,14.0,76,0.00,,,0.00,VWS V14.01,2013-03-16 17:10:00,
2013-03-16 12:15:00,34.1,28.9,30.03,NNE,14,10.0,14.0,81,0.00,,,0.00,VWS V14.01,2013-03-16 17:15:00,
2013-03-16 12:20:00,34.3,28.5,30.03,NE,34,6.0,12.0,79,0.00,,,0.00,VWS V14.01,2013-03-16 17:20:00,
2013-03-16 12:25:00,34.3,27.9,30.03,NE,40,5.0,13.0,77,0.00,,,0.00,VWS V14.01,2013-03-16 17:25:00,
2013-03-16 12:30:00,34.7,27.9,30.03,NNE,32,7.0,13.0,76,0.00,,,0.00,VWS V14.01,2013-03-16 17:30:00,
2013-03-16 12:35:00,35.0,26.6,30.03,NNE,32,8.0,13.0,71,0.00,,,0.00,VWS V14.01,2013-03-16 17:35:00,
2013-03-16 12:40:00,35.8,28.7,30.03,NE,42,7.0,13.0,75,0.00,,,0.00,VWS V14.01,2013-03-16 17:40:00,
2013-03-16 12:45:00,35.3,26.9,30.03,NE,52,8.0,13.0,71,0.00,,,0.00,VWS V14.01,2013-03-16 17:45:00,
2013-03-16 12:50:00,35.8,26.6,30.03,NE,48,6.0,13.0,69,0.00,,,0.00,VWS V14.01,2013-03-16 17:50:00,
2013-03-16 12:55:00,35.9,27.4,30.03,NE,48,7.0,14.0,71,0.00,,,0.00,VWS V14.01,2013-03-16 17:55:00,
2013-03-16 13:00:00,36.3,26.4,30.03,NNE,17,5.0,14.0,67,0.00,,,0.00,VWS V14.01,2013-03-16 18:00:00,
2013-03-16 13:05:00,36.5,26.6,30.02,NE,49,12.0,14.0,67,0.00,,,0.00,VWS V14.01,2013-03-16 18:05:00,
2013-03-16 13:10:00,36.5,25.1,30.02,NNE,18,7.0,14.0,63,0.00,,,0.00,VWS V14.01,2013-03-16 18:10:00,
2013-03-16 13:15:00,36.9,27.0,30.02,NNE,32,10.0,14.0,67,0.00,,,0.00,VWS V14.01,2013-03-16 18:15:00,
2013-03-16 13:20:00,36.6,25.2,30.02,NNE,13,9.0,16.0,63,0.00,,,0.00,VWS V14.01,2013-03-16 18:20:00,
2013-03-16 13:25:00,37.2,26.9,30.02,NE,34,7.0,16.0,66,0.00,,,0.00,VWS V14.01,2013-03-16 18:25:00,
2013-03-16 13:30:00,37.2,27.3,30.02,NE,40,12.0,16.0,67,0.00,,,0.00,VWS V14.01,2013-03-16 18:30:00,
2013-03-16 13:35:00,37.2,24.2,30.02,NE,47,4.0,12.0,59,0.00,,,0.00,VWS V14.01,2013-03-16 18:35:00,
2013-03-16 13:40:00,37.5,23.7,30.02,NNE,27,5.0,12.0,57,0.00,,,0.00,VWS V14.01,2013-03-16 18:40:00,
2013-03-16 13:45:00,37.5,26.5,30.02,NE,37,7.0,14.0,64,0.00,,,0.00,VWS V14.01,2013-03-16 18:45:00,
2013-03-16 13:50:00,38.0,24.5,30.02,NNE,25,6.0,10.0,58,0.00,,,0.00,VWS V14.01,2013-03-16 18:50:00,
2013-03-16 13:55:00,38.2,25.1,30.02,NNE,24,7.0,10.0,59,0.00,,,0.00,VWS V14.01,2013-03-16 18:55:00,
2013-03-16 14:00:00,38.3,24.8,30.02,NE,48,6.0,11.0,58,0.00,,,0.00,VWS V14.01,2013-03-16 19:00:00,
2013-03-16 14:05:00,38.6,25.5,30.01,NNE,31,6.0,11.0,59,0.00,,,0.00,VWS V14.01,2013-03-16 19:05:00,
2013-03-16 14:10:00,39.2,26.5,30.01,ENE,58,5.0,11.0,60,0.00,,,0.00,VWS V14.01,2013-03-16 19:10:00,
2013-03-16 14:15:00,38.8,24.5,30.01,NE,34,5.0,11.0,56,0.00,,,0.00,VWS V14.01,2013-03-16 19:15:00,
2013-03-16 14:20:00,38.9,23.7,30.01,NNE,31,5.0,8.0,54,0.00,,,0.00,VWS V14.01,2013-03-16 19:20:00,
2013-03-16 14:25:00,39.1,26.4,30.01,NNE,30,4.0,12.0,60,0.00,,,0.00,VWS V14.01,2013-03-16 19:25:00,
2013-03-16 14:30:00,39.2,24.8,30.01,NE,52,7.0,12.0,56,0.00,,,0.00,VWS V14.01,2013-03-16 19:30:00,
2013-03-16 14:35:00,39.2,25.7,30.00,NNE,25,9.0,12.0,58,0.00,,,0.00,VWS V14.01,2013-03-16 19:35:00,
2013-03-16 14:40:00,39.2,24.8,30.00,NE,49,8.0,12.0,56,0.00,,,0.00,VWS V14.01,2013-03-16 19:40:00,
2013-03-16 14:45:00,39.1,25.2,30.00,ENE,65,8.0,14.0,57,0.00,,,0.00,VWS V14.01,2013-03-16 19:45:00,
2013-03-16 14:50:00,38.9,23.7,30.00,NE,38,5.0,8.0,54,0.00,,,0.00,VWS V14.01,2013-03-16 19:50:00,
2013-03-16 14:55:00,39.3,26.2,30.00,NE,44,7.0,10.0,59,0.00,,,0.00,VWS V14.01,2013-03-16 19:55:00,
2013-03-16 15:00:00,39.2,24.4,30.00,NE,34,6.0,10.0,55,0.00,,,0.00,VWS V14.01,2013-03-16 20:00:00,
2013-03-16 15:05:00,39.2,26.1,30.00,ENE,66,7.0,14.0,59,0.00,,,0.00,VWS V14.01,2013-03-16 20:05:00,
2013-03-16 15:10:00,39.1,26.0,30.00,NE,56,7.0,14.0,59,0.00,,,0.00,VWS V14.01,2013-03-16 20:10:00,
2013-03-16 15:15:00,38.9,25.0,30.00,ENE,65,7.0,14.0,57,0.00,,,0.00,VWS V14.01,2013-03-16 20:15:00,
2013-03-16 15:20:00,38.9,24.1,30.00,NE,41,6.0,11.0,55,0.00,,,0.00,VWS V14.01,2013-03-16 20:20:00,
2013-03-16 15:25:00,39.1,25.2,30.00,ENE,62,7.0,11.0,57,0.00,,,0.00,VWS V14.01,2013-03-16 20:25:00,
2013-03-16 15:30:00,39.1,24.7,30.00,NE,51,7.0,11.0,56,0.00,,,0.00,VWS V14.01,2013-03-16 20:30:00,
2013-03-16 15:35:00,39.1,25.2,29.99,NE,38,5.0,10.0,57,0.00,,,0.00,VWS V14.01,2013-03-16 20:35:00,
2013-03-16 15:40:00,38.8,25.7,29.99,NE,55,7.0,10.0,59,0.00,,,0.00,VWS V14.01,2013-03-16 20:40:00,
2013-03-16 15:45:00,38.6,24.7,30.00,NE,34,8.0,12.0,57,0.00,,,0.00,VWS V14.01,2013-03-16 20:45:00,
2013-03-16 15:50:00,38.8,24.9,30.00,ENE,66,6.0,7.0,57,0.00,,,0.00,VWS V14.01,2013-03-16 20:50:00,
2013-03-16 15:55:00,38.9,24.1,30.00,NE,45,3.0,11.0,55,0.00,,,0.00,VWS V14.01,2013-03-16 20:55:00,
2013-03-16 16:00:00,38.9,25.4,30.00,NE,34,6.0,11.0,58,0.00,,,0.00,VWS V14.01,2013-03-16 21:00:00,
2013-03-16 16:05:00,38.8,24.5,30.00,NNE,30,2.0,8.0,56,0.00,,,0.00,VWS V14.01,2013-03-16 21:05:00,
2013-03-16 16:10:00,38.5,23.8,30.00,NE,47,5.0,8.0,55,0.00,,,0.00,VWS V14.01,2013-03-16 21:10:00,
2013-03-16 16:15:00,38.3,23.1,30.02,NE,45,6.0,8.0,54,0.00,,,0.00,VWS V14.01,2013-03-16 21:15:00,
2013-03-16 16:20:00,38.5,23.8,30.02,NE,55,7.0,8.0,55,0.00,,,0.00,VWS V14.01,2013-03-16 21:20:00,
2013-03-16 16:25:00,38.6,24.7,30.02,NNE,31,5.0,8.0,57,0.00,,,0.00,VWS V14.01,2013-03-16 21:25:00,
2013-03-16 16:30:00,38.6,24.3,30.01,NNE,32,6.0,10.0,56,0.00,,,0.00,VWS V14.01,2013-03-16 21:30:00,
2013-03-16 16:35:00,38.6,23.8,30.01,NE,45,6.0,12.0,55,0.00,,,0.00,VWS V14.01,2013-03-16 21:35:00,
2013-03-16 16:40:00,38.2,23.9,30.01,NE,45,6.0,12.0,56,0.00,,,0.00,VWS V14.01,2013-03-16 21:40:00,
2013-03-16 16:45:00,38.3,22.7,30.02,ENE,58,2.0,12.0,53,0.00,,,0.00,VWS V14.01,2013-03-16 21:45:00,
2013-03-16 16:50:00,38.6,25.5,30.02,NE,38,4.0,7.0,59,0.00,,,0.00,VWS V14.01,2013-03-16 21:50:00,
2013-03-16 16:55:00,38.3,22.2,30.02,NE,41,2.0,7.0,52,0.00,,,0.00,VWS V14.01,2013-03-16 21:55:00,
2013-03-16 17:00:00,38.5,23.3,30.03,NE,41,5.0,7.0,54,0.00,,,0.00,VWS V14.01,2013-03-16 22:00:00,
2013-03-16 17:05:00,38.2,23.0,30.03,NE,42,4.0,6.0,54,0.00,,,0.00,VWS V14.01,2013-03-16 22:05:00,
2013-03-16 17:10:00,38.3,23.6,30.03,NE,37,5.0,7.0,55,0.00,,,0.00,VWS V14.01,2013-03-16 22:10:00,
2013-03-16 17:15:00,38.5,22.4,30.03,NE,38,4.0,7.0,52,0.00,,,0.00,VWS V14.01,2013-03-16 22:15:00,
2013-03-16 17:20:00,38.3,21.8,30.03,NE,42,5.0,7.0,51,0.00,,,0.00,VWS V14.01,2013-03-16 22:20:00,
2013-03-16 17:25:00,38.3,22.7,30.03,NE,41,5.0,7.0,53,0.00,,,0.00,VWS V14.01,2013-03-16 22:25:00,
2013-03-16 17:30:00,38.3,22.7,30.03,NE,56,7.0,7.0,53,0.00,,,0.00,VWS V14.01,2013-03-16 22:30:00,
2013-03-16 17:35:00,38.2,22.1,30.03,ENE,58,0.0,7.0,52,0.00,,,0.00,VWS V14.01,2013-03-16 22:35:00,
2013-03-16 17:40:00,38.5,23.8,30.03,ENE,58,5.0,7.0,55,0.00,,,0.00,VWS V14.01,2013-03-16 22:40:00,
2013-03-16 17:45:00,38.3,23.6,30.02,NE,54,6.0,7.0,55,0.00,,,0.00,VWS V14.01,2013-03-16 22:45:00,
2013-03-16 17:50:00,38.2,24.3,30.02,NE,54,5.0,5.0,57,0.00,,,0.00,VWS V14.01,2013-03-16 22:50:00,
2013-03-16 17:55:00,38.0,22.0,30.02,NE,56,5.0,6.0,52,0.00,,,0.00,VWS V14.01,2013-03-16 22:55:00,
2013-03-16 18:00:00,38.0,23.3,30.02,NE,55,6.0,7.0,55,0.00,,,0.00,VWS V14.01,2013-03-16 23:00:00,
2013-03-16 18:05:00,37.8,23.5,30.02,ENE,59,5.0,7.0,56,0.00,,,0.00,VWS V14.01,2013-03-16 23:05:00,
2013-03-16 18:10:00,37.9,23.2,30.02,ENE,58,2.0,7.0,55,0.00,,,0.00,VWS V14.01,2013-03-16 23:10:00,
2013-03-16 18:15:00,37.9,24.9,30.01,NE,52,3.0,7.0,59,0.00,,,0.00,VWS V14.01,2013-03-16 23:15:00,
2013-03-16 18:20:00,37.5,24.9,30.01,NE,55,7.0,10.0,60,0.00,,,0.00,VWS V14.01,2013-03-16 23:20:00,
2013-03-16 18:25:00,37.5,24.1,30.01,NE,56,7.0,11.0,58,0.00,,,0.00,VWS V14.01,2013-03-16 23:25:00,
2013-03-16 18:30:00,37.2,26.2,30.01,ENE,62,7.0,11.0,64,0.00,,,0.00,VWS V14.01,2013-03-16 23:30:00,
2013-03-16 18:35:00,36.9,25.5,30.01,ENE,62,7.0,11.0,63,0.00,,,0.00,VWS V14.01,2013-03-16 23:35:00,
2013-03-16 18:40:00,36.6,23.6,30.01,ENE,64,10.0,11.0,59,0.00,,,0.00,VWS V14.01,2013-03-16 23:40:00,
2013-03-16 18:45:00,36.6,25.6,30.01,ENE,61,8.0,11.0,64,0.00,,,0.00,VWS V14.01,2013-03-16 23:45:00,
2013-03-16 18:50:00,36.3,24.9,30.01,ENE,66,9.0,13.0,63,0.00,,,0.00,VWS V14.01,2013-03-16 23:50:00,
2013-03-16 18:55:00,36.3,25.7,30.01,NE,47,7.0,13.0,65,0.00,,,0.00,VWS V14.01,2013-03-16 23:55:00,
2013-03-16 19:00:00,35.8,23.7,30.01,ENE,65,7.0,13.0,61,0.00,,,0.00,VWS V14.01,2013-03-17 00:00:00,
2013-03-16 19:05:00,35.8,25.6,30.01,NE,55,4.0,7.0,66,0.00,,,0.00,VWS V14.01,2013-03-17 00:05:00,
2013-03-16 19:10:00,35.8,24.8,30.01,NE,55,3.0,7.0,64,0.00,,,0.00,VWS V14.01,2013-03-17 00:10:00,
2013-03-16 19:15:00,35.5,23.0,30.03,NE,56,1.0,7.0,60,0.00,,,0.00,VWS V14.01,2013-03-17 00:15:00,
2013-03-16 19:20:00,35.3,22.8,30.03,ENE,61,1.0,5.0,60,0.00,,,0.00,VWS V14.01,2013-03-17 00:20:00,
2013-03-16 19:25:00,35.3,23.6,30.03,ENE,61,0.0,5.0,62,0.00,,,0.00,VWS V14.01,2013-03-17 00:25:00,
2013-03-16 19:30:00,35.3,23.6,30.04,ENE,58,0.0,5.0,62,0.00,,,0.00,VWS V14.01,2013-03-17 00:30:00,
2013-03-16 19:35:00,35.0,22.1,30.04,East,80,0.0,5.0,59,0.00,,,0.00,VWS V14.01,2013-03-17 00:35:00,
2013-03-16 19:40:00,35.0,22.5,30.04,ENE,73,2.0,5.0,60,0.00,,,0.00,VWS V14.01,2013-03-17 00:40:00,
2013-03-16 19:45:00,34.7,22.2,30.03,ENE,73,3.0,8.0,60,0.00,,,0.00,VWS V14.01,2013-03-17 00:45:00,
2013-03-16 19:50:00,34.7,22.6,30.03,ENE,61,5.0,8.0,61,0.00,,,0.00,VWS V14.01,2013-03-17 00:50:00,
2013-03-16 19:56:00,34.6,22.2,30.03,East,82,7.0,9.0,60,0.00,,,0.00,VWS V14.01,2013-03-17 00:56:00,
2013-03-16 20:00:00,33.8,21.0,30.04,ENE,72,3.0,8.0,59,0.00,,,0.00,VWS V14.01,2013-03-17 01:00:00,
2013-03-16 20:01:00,34.4,21.6,30.03,ENE,64,8.0,9.0,59,0.00,,,0.00,VWS V14.01,2013-03-17 01:01:00,
2013-03-16 20:06:00,34.6,22.5,30.03,NE,56,2.0,2.0,61,0.00,,,0.00,VWS V14.01,2013-03-17 01:06:00,
2013-03-16 20:11:00,34.3,21.9,30.03,East,89,6.0,7.0,60,0.00,,,0.00,VWS V14.01,2013-03-17 01:11:00,
2013-03-16 20:15:00,33.8,22.6,30.03,East,85,3.0,7.0,63,0.00,,,0.00,VWS V14.01,2013-03-17 01:15:00,
2013-03-16 20:16:00,34.3,22.6,30.03,ENE,72,5.0,7.0,62,0.00,,,0.00,VWS V14.01,2013-03-17 01:16:00,
2013-03-16 20:21:00,34.3,23.0,30.03,ENE,71,2.0,7.0,63,0.00,,,0.00,VWS V14.01,2013-03-17 01:21:00,
2013-03-16 20:26:00,34.1,21.3,30.03,East,79,2.0,7.0,59,0.00,,,0.00,VWS V14.01,2013-03-17 01:26:00,
2013-03-16 20:30:00,33.7,24.3,30.04,ESE,107,1.0,6.0,68,0.00,,,0.00,VWS V14.01,2013-03-17 01:30:00,
2013-03-16 20:31:00,34.3,21.9,30.03,East,79,5.0,7.0,60,0.00,,,0.00,VWS V14.01,2013-03-17 01:31:00,
2013-03-16 20:36:00,34.3,23.8,30.03,East,79,3.0,7.0,65,0.00,,,0.00,VWS V14.01,2013-03-17 01:36:00,
2013-03-16 20:41:00,34.1,22.5,30.03,ENE,72,6.0,7.0,62,0.00,,,0.00,VWS V14.01,2013-03-17 01:41:00,
2013-03-16 20:45:00,33.2,23.1,30.05,East,82,5.0,6.0,66,0.00,,,0.00,VWS V14.01,2013-03-17 01:45:00,
2013-03-16 20:46:00,34.1,22.1,30.03,ENE,65,2.0,3.0,61,0.00,,,0.00,VWS V14.01,2013-03-17 01:46:00,
2013-03-16 20:51:00,34.0,20.8,30.03,East,85,3.0,8.0,58,0.00,,,0.00,VWS V14.01,2013-03-17 01:51:00,
2013-03-16 20:56:00,33.8,22.2,30.03,ENE,76,4.0,8.0,62,0.00,,,0.00,VWS V14.01,2013-03-17 01:56:00,
2013-03-16 21:00:00,33.2,22.4,30.06,ENE,75,0.0,7.0,64,0.00,,,0.00,VWS V14.01,2013-03-17 02:00:00,
2013-03-16 21:01:00,33.8,21.0,30.04,ENE,72,5.0,5.0,59,0.00,,,0.00,VWS V14.01,2013-03-17 02:01:00,
2013-03-16 21:07:00,33.8,21.4,30.04,ENE,72,1.0,7.0,60,0.00,,,0.00,VWS V14.01,2013-03-17 02:07:00,
2013-03-16 21:12:00,33.8,21.4,30.04,ENE,72,6.0,7.0,60,0.00,,,0.00,VWS V14.01,2013-03-17 02:12:00,
2013-03-16 21:15:00,33.1,22.3,30.05,ENE,68,2.0,7.0,64,0.00,,,0.00,VWS V14.01,2013-03-17 02:15:00,
2013-03-16 21:17:00,33.8,22.2,30.03,East,83,2.0,5.0,62,0.00,,,0.00,VWS V14.01,2013-03-17 02:17:00,
2013-03-16 21:22:00,33.8,22.9,30.03,SE,133,5.0,6.0,64,0.00,,,0.00,VWS V14.01,2013-03-17 02:22:00,
2013-03-16 21:27:00,33.7,22.5,30.03,SE,130,0.0,6.0,63,0.00,,,0.00,VWS V14.01,2013-03-17 02:27:00,
2013-03-16 21:30:00,32.9,20.9,30.05,ENE,73,0.0,8.0,61,0.00,,,0.00,VWS V14.01,2013-03-17 02:30:00,
2013-03-16 21:32:00,33.7,24.3,30.04,ESE,107,0.0,3.0,68,0.00,,,0.00,VWS V14.01,2013-03-17 02:32:00,
2013-03-16 21:37:00,33.4,23.3,30.04,East,88,3.0,5.0,66,0.00,,,0.00,VWS V14.01,2013-03-17 02:37:00,
2013-03-16 21:42:00,33.2,23.8,30.04,East,82,3.0,5.0,68,0.00,,,0.00,VWS V14.01,2013-03-17 02:42:00,
2013-03-16 21:45:00,32.9,22.1,30.05,ENE,73,3.0,7.0,64,0.00,,,0.00,VWS V14.01,2013-03-17 02:45:00,
2013-03-16 21:47:00,33.2,22.4,30.05,East,80,3.0,5.0,64,0.00,,,0.00,VWS V14.01,2013-03-17 02:47:00,
2013-03-16 21:52:00,33.1,21.5,30.05,ENE,59,6.0,7.0,62,0.00,,,0.00,VWS V14.01,2013-03-17 02:52:00,
2013-03-16 21:57:00,33.1,23.0,30.05,ENE,75,0.0,7.0,66,0.00,,,0.00,VWS V14.01,2013-03-17 02:57:00,
2013-03-16 21:58:00,32.8,23.1,30.05,NE,48,5.0,9.0,67,0.00,,,0.00,VWS V14.01,2013-03-17 02:58:00,
2013-03-16 21:59:00,32.8,23.1,30.05,NE,48,1.0,9.0,67,0.00,,,0.00,VWS V14.01,2013-03-17 02:59:00,
2013-03-16 22:00:00,32.7,23.0,30.05,ENE,66,6.0,9.0,67,0.00,,,0.00,VWS V14.01,2013-03-17 03:00:00,
2013-03-16 22:01:00,32.7,21.9,30.05,ENE,68,5.0,6.0,64,0.00,,,0.00,VWS V14.01,2013-03-17 03:01:00,
2013-03-16 22:02:00,33.2,23.1,30.06,ENE,75,5.0,5.0,66,0.00,,,0.00,VWS V14.01,2013-03-17 03:02:00,
2013-03-16 22:03:00,32.4,20.9,30.05,ENE,72,6.0,7.0,62,0.00,,,0.00,VWS V14.01,2013-03-17 03:03:00,
2013-03-16 22:04:00,32.4,21.6,30.05,East,90,6.0,8.0,64,0.00,,,0.00,VWS V14.01,2013-03-17 03:04:00,
2013-03-16 22:07:00,33.1,21.5,30.06,ENE,76,2.0,5.0,62,0.00,,,0.00,VWS V14.01,2013-03-17 03:07:00,
2013-03-16 22:12:00,33.2,23.1,30.06,ENE,75,1.0,7.0,66,0.00,,,0.00,VWS V14.01,2013-03-17 03:12:00,
2013-03-16 22:15:00,32.1,21.7,30.03,ENE,76,5.0,10.0,65,0.00,,,0.00,VWS V14.01,2013-03-17 03:15:00,
2013-03-16 22:17:00,33.1,22.3,30.05,ENE,76,5.0,7.0,64,0.00,,,0.00,VWS V14.01,2013-03-17 03:17:00,
2013-03-16 22:22:00,33.1,21.9,30.05,ENE,78,7.0,7.0,63,0.00,,,0.00,VWS V14.01,2013-03-17 03:22:00,
2013-03-16 22:27:00,32.9,22.1,30.05,ENE,73,3.0,7.0,64,0.00,,,0.00,VWS V14.01,2013-03-17 03:27:00,
2013-03-16 22:30:00,31.9,23.6,30.02,ENE,69,5.0,11.0,71,0.00,,,0.00,VWS V14.01,2013-03-17 03:30:00,
2013-03-16 22:32:00,33.1,21.1,30.05,ENE,73,2.0,5.0,61,0.00,,,0.00,VWS V14.01,2013-03-17 03:32:00,
2013-03-16 22:37:00,33.1,24.0,30.05,ENE,78,6.0,6.0,69,0.00,,,0.00,VWS V14.01,2013-03-17 03:37:00,
2013-03-16 22:42:00,32.9,21.3,30.05,ENE,73,5.0,7.0,62,0.00,,,0.00,VWS V14.01,2013-03-17 03:42:00,
2013-03-16 22:45:00,31.3,24.3,30.03,ENE,65,5.0,8.0,75,0.00,,,0.00,VWS V14.01,2013-03-17 03:45:00,
2013-03-16 22:47:00,32.8,23.1,30.05,ENE,69,3.0,7.0,67,0.00,,,0.00,VWS V14.01,2013-03-17 03:47:00,
2013-03-16 22:52:00,32.7,22.2,30.05,East,79,6.0,7.0,65,0.00,,,0.00,VWS V14.01,2013-03-17 03:52:00,
2013-03-16 22:57:00,32.7,22.2,30.05,ENE,64,3.0,7.0,65,0.00,,,0.00,VWS V14.01,2013-03-17 03:57:00,
2013-03-16 23:00:00,31.0,23.7,30.02,East,79,2.0,10.0,74,0.00,,,0.00,VWS V14.01,2013-03-17 04:00:00,
2013-03-16 23:03:00,32.5,20.9,30.05,East,86,5.0,7.0,62,0.00,,,0.00,VWS V14.01,2013-03-17 04:03:00,
2013-03-16 23:09:00,32.2,21.0,30.05,ENE,72,2.0,10.0,63,0.00,,,0.00,VWS V14.01,2013-03-17 04:09:00,
2013-03-16 23:14:00,32.2,22.1,30.05,ENE,68,4.0,10.0,66,0.00,,,0.00,VWS V14.01,2013-03-17 04:14:00,
2013-03-16 23:15:00,30.6,24.6,30.01,SE,138,0.0,10.0,78,0.00,,,0.00,VWS V14.01,2013-03-17 04:15:00,
2013-03-16 23:19:00,32.2,23.2,30.03,ENE,69,5.0,6.0,69,0.00,,,0.00,VWS V14.01,2013-03-17 04:19:00,
2013-03-16 23:24:00,31.9,22.2,30.03,East,85,5.0,11.0,67,0.00,,,0.00,VWS V14.01,2013-03-17 04:24:00,
2013-03-16 23:29:00,31.9,23.9,30.03,East,85,7.0,11.0,72,0.00,,,0.00,VWS V14.01,2013-03-17 04:29:00,
2013-03-16 23:30:00,30.4,24.7,30.01,ENE,73,3.0,7.0,79,0.00,,,0.00,VWS V14.01,2013-03-17 04:30:00,
2013-03-16 23:34:00,31.9,24.6,30.02,East,82,2.0,8.0,74,0.00,,,0.00,VWS V14.01,2013-03-17 04:34:00,
2013-03-16 23:39:00,31.6,24.6,30.02,NE,49,3.0,8.0,75,0.00,,,0.00,VWS V14.01,2013-03-17 04:39:00,
2013-03-16 23:44:00,31.5,25.4,30.02,East,82,5.0,8.0,78,0.00,,,0.00,VWS V14.01,2013-03-17 04:44:00,
2013-03-16 23:45:00,30.1,24.4,30.02,SE,131,2.0,7.0,79,0.00,,,0.00,VWS V14.01,2013-03-17 04:45:00,
2013-03-16 23:49:00,31.3,24.9,30.03,ENE,65,3.0,10.0,77,0.00,,,0.00,VWS V14.01,2013-03-17 04:49:00,
2013-03-16 23:54:00,31.2,25.8,30.03,NE,55,0.0,10.0,80,0.00,,,0.00,VWS V14.01,2013-03-17 04:54:00,
2013-03-16 23:59:00,31.2,24.5,30.03,ENE,66,5.0,10.0,76,0.00,,,0.00,VWS V14.01,2013-03-17 04:59:00,